When you browse on this site, cookies collect data to enhance your experience and personalize the content and advertising you see.
Visit our Privacy Policy to learn more. By continuing to use the site, you agree to this use of cookies and data.
  • In Hungary
  • List of Countries
  • For 7 days
  • Water Temperature
  • Satellite Maps
  • Weather Map
  • News
  • Weather Widgets
  • user-avatar
    Login

    Hourly Weather Ust'-Dzheguta

    Today, 18 February, Monday

    Time Temperature Precipitation Wind Pressure Humidity
    00:00 +5°C° 0 mm 5 mps 696 mmHg 52%
    01:00 +5°C° 0 mm 5 mps 695 mmHg 52%
    02:00 +3°C° 0 mm 5 mps 695 mmHg 53%
    03:00 +4°C° 0 mm 8 mps 694 mmHg 49%
    04:00 +4°C° 0 mm 7 mps 694 mmHg 50%
    05:00 +3°C° 0 mm 6 mps 694 mmHg 51%
    06:00 +3°C° 0 mm 5 mps 693 mmHg 52%
    07:00 +3°C° 0 mm 5 mps 693 mmHg 52%
    08:00 +4°C° 0 mm 6 mps 693 mmHg 52%
    09:00 +4°C° 0 mm 6 mps 693 mmHg 51%
    10:00 +5°C° 0 mm 8 mps 693 mmHg 50%
    11:00 +6°C° 0 mm 9 mps 694 mmHg 50%
    12:00 +6°C° 0 mm 11 mps 694 mmHg 49%
    13:00 +4°C° 0 mm 11 mps 694 mmHg 57%
    14:00 +3°C° 0 mm 11 mps 694 mmHg 66%
    15:00 +1°C° 0 mm 10 mps 694 mmHg 74%
    16:00 0°C° 0.2 mm 9 mps 694 mmHg 77%
    17:00 -1°C° 0.2 mm 8 mps 694 mmHg 81%
    18:00 -2°C° 0.2 mm 7 mps 694 mmHg 84%
    19:00 -3°C° 0.2 mm 7 mps 695 mmHg 84%
    20:00 -3°C° 0.2 mm 6 mps 695 mmHg 84%
    21:00 -4°C° 0.2 mm 6 mps 695 mmHg 85%
    22:00 -5°C° 0.1 mm 5 mps 696 mmHg 85%
    23:00 -5°C° 0.1 mm 5 mps 696 mmHg 85%

    Tomorrow, 19 February, Tuesday

    Time Temperature Precipitation Wind Pressure Humidity
    00:00 -5°C° 0.1 mm 5 mps 696 mmHg 85%
    01:00 -4°C° 0 mm 4 mps 697 mmHg 86%
    02:00 -5°C° 0 mm 4 mps 697 mmHg 86%
    03:00 -5°C° 0 mm 4 mps 697 mmHg 86%
    04:00 -5°C° 0 mm 4 mps 698 mmHg 86%
    05:00 -5°C° 0 mm 3 mps 698 mmHg 86%
    06:00 -5°C° 0 mm 3 mps 699 mmHg 86%
    07:00 -5°C° 0 mm 3 mps 699 mmHg 83%
    08:00 -5°C° 0 mm 3 mps 700 mmHg 80%
    09:00 -4°C° 0 mm 2 mps 700 mmHg 77%
    10:00 -4°C° 0 mm 3 mps 701 mmHg 70%
    11:00 -2°C° 0 mm 3 mps 701 mmHg 63%
    12:00 -1°C° 0 mm 3 mps 701 mmHg 56%
    13:00 -1°C° 0 mm 2 mps 701 mmHg 54%
    14:00 +1°C° 0 mm 2 mps 701 mmHg 51%
    15:00 +1°C° 0 mm 2 mps 701 mmHg 48%
    16:00 -1°C° 0 mm 2 mps 702 mmHg 52%
    17:00 -2°C° 0 mm 2 mps 702 mmHg 56%
    18:00 -1°C° 0 mm 1 mps 702 mmHg 60%
    19:00 -1°C° 0 mm 1 mps 702 mmHg 61%
    20:00 -1°C° 0 mm 1 mps 702 mmHg 61%
    21:00 -2°C° 0 mm 1 mps 702 mmHg 62%
    22:00 -1°C° 0 mm 1 mps 702 mmHg 60%
    23:00 -1°C° 0 mm 1 mps 702 mmHg 59%

    Day after tomorrow, 20 February, Wednesday

    Time Temperature Precipitation Wind Pressure Humidity
    00:00 -1°C° 0 mm 1 mps 702 mmHg 57%
    01:00 -1°C° 0 mm 1 mps 702 mmHg 55%
    02:00 -1°C° 0 mm 1 mps 702 mmHg 53%
    03:00 -1°C° 0 mm 1 mps 701 mmHg 51%
    04:00 -1°C° 0 mm 1 mps 701 mmHg 50%
    05:00 -2°C° 0 mm 0 mps 701 mmHg 48%
    06:00 -2°C° 0 mm 0 mps 701 mmHg 46%
    07:00 -1°C° 0 mm 0 mps 701 mmHg 42%
    08:00 0°C° 0 mm 0 mps 701 mmHg 38%
    09:00 +1°C° 0 mm 0 mps 701 mmHg 34%
    10:00 +4°C° 0 mm 1 mps 701 mmHg 32%
    11:00 +5°C° 0 mm 1 mps 700 mmHg 29%
    12:00 +5°C° 0 mm 2 mps 700 mmHg 27%
    13:00 +5°C° 0 mm 2 mps 700 mmHg 28%
    14:00 +5°C° 0 mm 2 mps 700 mmHg 30%
    15:00 +5°C° 0 mm 2 mps 699 mmHg 31%
    16:00 +4°C° 0 mm 2 mps 699 mmHg 37%
    17:00 +4°C° 0 mm 1 mps 699 mmHg 42%
    18:00 +2°C° 0 mm 1 mps 699 mmHg 48%
    19:00 +2°C° 0 mm 1 mps 699 mmHg 50%
    20:00 +1°C° 0 mm 0 mps 699 mmHg 51%
    21:00 +1°C° 0 mm 0 mps 699 mmHg 53%
    22:00 +1°C° 0 mm 0 mps 699 mmHg 52%
    23:00 +1°C° 0 mm 0 mps 699 mmHg 52%

    21 February, Thursday

    Time Temperature Precipitation Wind Pressure Humidity
    00:00 +1°C° 0 mm 0 mps 699 mmHg 52%
    01:00 +1°C° 0 mm 0 mps 699 mmHg 51%
    02:00 +1°C° 0 mm 0 mps 699 mmHg 50%
    03:00 +1°C° 0 mm 0 mps 699 mmHg 49%
    04:00 +1°C° 0 mm 0 mps 699 mmHg 49%
    05:00 +1°C° 0 mm 0 mps 698 mmHg 49%
    06:00 +2°C° 0 mm 1 mps 698 mmHg 48%
    07:00 +2°C° 0 mm 0 mps 699 mmHg 45%
    08:00 +3°C° 0 mm 0 mps 699 mmHg 41%
    09:00 +4°C° 0 mm 0 mps 699 mmHg 38%
    10:00 +6°C° 0 mm 1 mps 699 mmHg 35%
    11:00 +7°C° 0 mm 1 mps 699 mmHg 33%
    12:00 +8°C° 0 mm 1 mps 699 mmHg 30%
    13:00 +8°C° 0 mm 2 mps 699 mmHg 31%
    14:00 +8°C° 0 mm 2 mps 698 mmHg 32%
    15:00 +8°C° 0 mm 2 mps 698 mmHg 32%
    16:00 +7°C° 0 mm 2 mps 698 mmHg 38%
    17:00 +5°C° 0 mm 2 mps 698 mmHg 43%
    18:00 +5°C° 0 mm 1 mps 698 mmHg 48%
    19:00 +4°C° 0 mm 1 mps 698 mmHg 50%
    20:00 +4°C° 0 mm 1 mps 699 mmHg 51%
    21:00 +3°C° 0 mm 0 mps 699 mmHg 53%
    22:00 +2°C° 0 mm 0 mps 699 mmHg 56%
    23:00 +3°C° 0 mm 1 mps 699 mmHg 58%

    22 February, Friday

    Time Temperature Precipitation Wind Pressure Humidity
    00:00 +3°C° 0 mm 1 mps 699 mmHg 61%
    01:00 +2°C° 0 mm 1 mps 699 mmHg 68%
    02:00 +2°C° 0 mm 1 mps 699 mmHg 75%
    03:00 +1°C° 0 mm 1 mps 698 mmHg 82%
    04:00 +1°C° 0 mm 1 mps 698 mmHg 85%
    05:00 +1°C° 0 mm 1 mps 698 mmHg 89%
    06:00 +1°C° 0 mm 1 mps 699 mmHg 92%
    07:00 +2°C° 0 mm 1 mps 699 mmHg 90%
    08:00 +2°C° 0 mm 1 mps 699 mmHg 87%
    09:00 +2°C° 0 mm 1 mps 699 mmHg 85%
    10:00 +3°C° 0 mm 1 mps 698 mmHg 84%
    11:00 +2°C° 0 mm 2 mps 698 mmHg 82%
    12:00 +2°C° 0 mm 2 mps 698 mmHg 81%
    13:00 +3°C° 0.1 mm 2 mps 697 mmHg 81%
    14:00 +3°C° 0.1 mm 2 mps 697 mmHg 82%
    15:00 +3°C° 0.1 mm 2 mps 697 mmHg 82%
    16:00 +2°C° 0.1 mm 2 mps 697 mmHg 84%
    17:00 +2°C° 0.1 mm 2 mps 697 mmHg 87%
    18:00 +2°C° 0.1 mm 2 mps 697 mmHg 89%
    19:00 +2°C° 0.1 mm 1 mps 697 mmHg 91%
    20:00 +2°C° 0.1 mm 1 mps 697 mmHg 92%
    21:00 +2°C° 0.1 mm 1 mps 697 mmHg 93%
    22:00 +2°C° 0 mm 1 mps 696 mmHg 92%
    23:00 +2°C° 0 mm 1 mps 696 mmHg 92%

    23 February, Saturday

    Time Temperature Precipitation Wind Pressure Humidity
    00:00 +2°C° 0 mm 1 mps 696 mmHg 91%
    01:00 +1°C° 0.1 mm 1 mps 696 mmHg 92%
    02:00 +1°C° 0.1 mm 1 mps 695 mmHg 94%
    03:00 +1°C° 0.1 mm 1 mps 695 mmHg 95%
    04:00 +1°C° 0.2 mm 1 mps 695 mmHg 95%
    05:00 +1°C° 0.2 mm 1 mps 695 mmHg 95%
    06:00 +1°C° 0.2 mm 1 mps 695 mmHg 96%
    07:00 +1°C° 0.3 mm 1 mps 695 mmHg 95%
    08:00 +1°C° 0.3 mm 1 mps 695 mmHg 94%
    09:00 +1°C° 0.3 mm 0 mps 695 mmHg 93%
    10:00 +2°C° 0.3 mm 1 mps 695 mmHg 92%
    11:00 +2°C° 0.3 mm 1 mps 695 mmHg 91%
    12:00 +2°C° 0.3 mm 2 mps 695 mmHg 90%
    13:00 +1°C° 0.3 mm 2 mps 695 mmHg 91%
    14:00 0°C° 0.3 mm 3 mps 695 mmHg 93%
    15:00 -1°C° 0.3 mm 3 mps 695 mmHg 94%
    16:00 -2°C° 0.4 mm 3 mps 695 mmHg 95%
    17:00 -2°C° 0.4 mm 3 mps 695 mmHg 95%
    18:00 -4°C° 0.4 mm 3 mps 695 mmHg 96%
    19:00 -5°C° 0.6 mm 3 mps 695 mmHg 96%
    20:00 -6°C° 0.6 mm 3 mps 695 mmHg 96%
    21:00 -7°C° 0.6 mm 3 mps 696 mmHg 96%
    22:00 -8°C° 0.6 mm 3 mps 696 mmHg 96%
    23:00 -9°C° 0.6 mm 3 mps 696 mmHg 96%
    Show more